Theta_e
345 345 348 353 353 353 353 353 353 353 353 352 353 353 352 352 353 353 352 352 353 353 353 355 355 355 354 354 354 354 354 353 353 353 353 353 353 353 353 353 352 352 352 352 351 350 349 349 348 348 348 347 347 346 345 344 343 343 341 341 344 344 345 345 345 344 344 343 343 344 345 346 347 348 347 347 346 344 343 343 343 340 337 337 340
343 346 349 350 353 353 352 352 352 352 353 352 353 352 352 352 352 352 352 353 353 354 355 355 354 354 354 354 354 354 354 353 353 353 353 352 353 353 353 352 352 351 351 351 350 350 349 348 348 347 346 346 346 345 345 343 341 339 339 340 341 343 343 343 344 344 343 344 343 343 344 344 345 346 347 346 345 345 344 343 343 339 338 341 340
346 347 348 349 352 352 352 352 352 352 352 352 352 352 352 352 352 352 353 352 355 355 355 354 354 354 354 354 354 354 354 353 353 353 352 352 353 353 352 352 352 351 351 350 350 349 348 348 348 347 346 344 344 343 342 341 342 341 341 340 340 340 341 343 344 342 343 344 344 344 344 344 344 344 345 344 344 343 342 343 342 341 338 341 340
345 346 347 349 351 352 352 351 351 350 351 351 352 351 351 352 352 352 352 354 354 354 354 354 354 354 354 354 354 354 354 353 353 352 352 352 351 352 352 351 351 351 351 350 350 349 349 349 349 347 346 345 343 343 342 341 342 341 340 341 341 341 343 344 342 342 344 343 343 342 341 335 339 342 343 343 342 342 341 341 340 341 339 339 339
345 346 346 347 348 350 351 351 352 351 350 350 351 351 351 352 352 352 353 353 354 354 354 353 354 354 354 353 353 354 353 353 353 353 352 352 352 352 352 352 351 351 350 350 350 349 349 349 348 347 346 346 345 343 342 341 340 339 340 340 340 342 343 343 344 343 344 343 342 340 335 335 335 341 342 341 341 340 340 340 340 340 339 338 339
343 344 345 347 348 349 351 351 351 350 351 350 351 351 352 352 352 352 353 353 353 353 353 353 353 354 354 354 354 353 353 353 353 352 352 351 352 351 352 351 351 351 350 351 350 350 350 349 348 348 347 347 344 343 342 340 340 338 338 339 340 340 342 341 342 344 344 344 346 341 334 334 335 338 342 341 341 340 341 341 340 339 338 337 338
344 344 345 346 347 349 351 351 351 351 351 351 351 351 352 352 352 353 353 353 353 354 353 354 353 353 353 353 353 353 353 353 352 352 352 351 351 351 350 351 350 350 350 350 349 350 349 349 348 348 348 346 344 342 341 341 341 339 338 339 339 340 339 340 339 341 341 342 338 339 334 335 336 339 343 344 344 342 342 342 341 340 339 338 338
345 345 345 346 347 349 350 351 351 351 351 351 351 351 352 352 352 353 353 353 353 354 354 353 353 353 354 353 353 353 352 353 353 352 351 351 351 351 351 351 350 350 350 350 348 349 348 348 348 348 348 347 344 343 342 341 340 340 340 340 341 340 341 341 342 342 342 341 336 337 333 335 336 338 342 343 344 343 342 341 340 339 339 338 338
343 345 345 346 347 350 351 351 350 351 351 351 352 352 352 353 353 353 353 354 354 353 354 354 353 353 353 353 353 352 352 352 352 352 352 351 351 351 351 351 350 350 349 349 348 348 346 346 346 346 346 346 345 343 343 343 342 342 342 342 342 344 344 345 346 346 345 342 340 334 335 336 336 338 342 342 342 342 340 338 340 339 339 338 337
343 345 345 345 347 350 351 351 351 351 351 352 352 352 353 353 354 354 354 354 353 354 353 353 353 353 352 352 352 352 352 352 352 352 351 351 350 350 350 350 350 349 349 348 347 347 347 347 347 347 346 346 345 343 343 343 343 343 343 342 343 343 344 344 345 345 342 341 335 333 337 341 336 337 340 341 341 340 339 339 341 338 338 337 337
343 344 345 346 347 351 351 351 352 351 352 353 353 353 353 354 354 354 353 353 353 353 353 353 353 353 352 352 352 352 351 351 351 351 351 351 350 350 350 349 349 349 348 348 347 346 347 348 348 348 348 345 344 345 343 345 343 345 345 344 344 344 345 345 345 340 340 338 338 339 343 344 334 333 341 341 340 339 340 338 337 337 337 337 337
342 343 344 346 350 351 351 352 352 353 353 353 353 354 354 353 353 354 353 353 353 353 353 353 352 352 352 352 352 351 351 351 350 349 349 348 349 348 348 348 347 347 347 347 346 346 348 348 348 349 348 348 346 344 344 345 344 345 345 346 345 345 345 345 343 338 338 334 337 335 335 335 334 337 340 341 339 340 339 338 337 337 337 336 336
342 343 345 346 348 351 352 352 353 354 353 354 354 354 353 354 354 353 353 353 353 353 352 352 352 351 351 351 351 350 350 350 349 349 348 348 348 347 346 346 345 345 345 346 345 346 347 347 348 348 348 348 347 346 345 345 345 345 346 346 346 346 346 346 341 338 338 336 335 333 333 333 334 342 341 340 339 338 337 337 337 336 336 336 336
342 343 345 346 347 352 352 352 353 354 354 354 354 353 354 353 353 353 353 353 352 352 352 352 351 351 350 351 350 350 349 348 348 348 348 347 346 345 345 345 344 344 344 344 344 344 345 346 347 348 348 348 348 347 345 346 345 346 346 346 347 347 346 344 342 337 339 334 335 334 334 335 335 342 341 341 339 339 338 337 337 336 336 335 335
341 342 344 345 346 348 353 352 353 354 353 353 353 354 354 353 353 352 352 352 352 352 351 351 351 350 350 349 349 348 347 347 347 346 346 345 345 344 344 344 343 342 343 342 343 343 344 345 346 347 346 347 347 347 346 346 346 346 347 347 347 347 346 342 342 340 340 335 336 335 333 334 342 342 341 340 339 338 338 337 337 336 334 333 333
342 342 344 344 345 347 349 352 352 353 353 353 353 353 353 352 352 352 352 352 352 351 351 350 350 350 349 349 348 348 347 347 346 346 346 346 345 344 344 343 342 342 342 342 341 341 342 343 344 345 346 347 346 346 346 346 347 347 347 347 347 347 347 346 342 341 338 334 335 335 334 336 342 341 340 340 339 338 337 336 336 336 335 333 332
342 342 342 343 344 345 347 350 352 354 353 353 353 352 352 352 352 352 352 351 351 351 350 350 350 349 349 349 348 348 347 347 347 346 346 346 345 344 344 344 342 341 340 341 341 341 341 342 342 343 345 346 346 346 345 346 347 347 347 347 347 346 347 348 343 340 338 336 336 335 334 336 340 341 340 338 338 338 338 337 336 335 335 333 333
342 341 341 342 343 344 348 349 348 349 350 352 353 352 352 352 352 351 351 351 351 350 350 349 349 349 349 349 348 348 347 347 347 346 346 345 344 343 343 343 343 342 340 339 339 341 340 340 343 343 343 344 346 346 347 347 346 347 347 347 347 347 348 349 340 338 337 341 335 336 335 341 342 340 340 338 337 337 335 337 336 335 335 333 334
341 341 341 341 342 344 346 347 348 348 348 347 349 351 352 352 351 351 351 351 350 350 350 350 349 349 349 349 349 348 348 347 346 345 345 344 343 344 343 343 343 343 342 341 339 338 339 340 341 343 343 344 343 346 347 347 347 347 347 347 347 347 348 343 338 339 336 338 335 334 334 341 341 340 338 338 337 337 334 335 337 336 335 333 333
340 340 340 341 342 342 344 344 345 346 346 347 347 349 351 351 351 351 351 351 349 350 349 349 349 349 350 350 349 347 347 345 346 345 345 345 345 344 344 342 343 343 343 342 342 340 340 339 342 342 342 343 345 345 346 347 347 347 347 347 347 347 340 337 338 339 334 336 336 334 340 342 340 339 340 339 338 338 336 337 337 336 334 334 333
341 340 340 340 340 341 341 341 342 344 345 347 347 348 350 351 351 351 351 351 350 349 350 350 350 349 349 349 348 345 343 343 344 343 346 344 344 344 343 343 342 343 344 343 340 340 339 340 340 341 342 341 343 345 346 346 347 347 347 347 347 341 337 337 338 340 332 337 336 334 343 341 341 341 341 340 338 337 337 337 337 335 335 333 333
338 339 340 340 339 340 340 339 340 342 344 346 347 348 349 350 347 348 349 348 349 350 348 347 352 345 349 347 344 346 344 343 343 349 344 344 343 344 344 343 343 343 343 345 344 342 341 341 341 340 341 342 343 336 342 348 348 347 348 347 342 338 338 337 338 339 334 333 335 338 344 342 342 342 341 340 338 336 337 338 336 336 335 334 333
338 340 339 340 340 341 340 340 340 341 342 344 346 347 347 347 346 346 348 350 350 349 345 348 344 345 346 345 346 343 345 344 344 347 345 345 344 345 344 344 344 344 345 345 345 345 343 341 340 341 342 343 338 336 338 340 341 349 349 346 337 336 337 337 338 338 331 333 332 343 344 343 343 343 343 340 339 337 338 338 338 336 335 335 334
339 340 339 342 343 341 341 342 340 340 339 339 343 344 344 345 345 345 346 346 346 347 345 346 345 345 345 342 343 345 342 340 350 349 351 345 342 345 345 345 345 346 345 345 345 346 346 345 343 343 343 338 331 331 335 340 340 340 340 339 338 338 338 338 339 337 330 339 333 346 344 345 343 344 344 342 341 339 338 339 339 337 336 335 335
341 342 343 343 344 344 343 341 341 340 337 338 340 341 342 343 344 344 345 345 345 345 345 343 343 342 341 344 344 345 343 343 342 342 341 341 340 340 341 340 340 339 345 339 338 339 341 339 337 337 332 331 331 331 333 335 341 340 338 337 336 336 337 339 339 335 333 336 335 346 346 345 345 344 344 344 343 341 340 339 339 338 337 336 335
341 340 341 343 343 344 342 341 341 338 337 337 338 342 342 341 341 342 344 343 345 344 343 342 342 343 343 346 346 342 342 341 341 339 338 338 339 341 339 340 340 342 344 338 338 338 338 336 331 326 328 327 328 331 332 335 338 339 338 337 337 337 338 337 335 333 335 333 336 346 345 345 345 345 346 345 344 343 342 341 340 340 338 336 336
340 339 341 341 342 342 342 342 340 337 336 337 338 340 336 338 338 341 340 340 342 341 339 340 342 342 343 347 344 340 339 339 339 338 337 338 338 338 338 340 339 339 340 337 337 339 337 335 333 326 324 325 326 328 330 331 334 339 338 338 338 338 337 333 332 333 332 334 337 348 345 345 345 347 346 346 345 344 343 342 341 341 339 339 338
338 337 340 341 341 341 342 341 340 338 336 337 336 335 337 337 338 343 341 340 341 338 339 342 343 342 345 345 347 341 340 338 338 337 338 338 338 339 338 339 341 338 339 340 337 338 338 337 336 331 326 325 325 326 329 331 333 332 332 331 331 332 331 333 333 334 334 334 336 345 345 345 343 346 346 346 346 345 344 343 342 341 341 339 339
335 336 339 340 341 341 341 339 338 338 336 335 333 336 337 337 339 338 337 348 340 341 341 342 341 342 343 346 345 340 340 339 338 338 337 339 339 339 339 338 339 339 338 337 339 339 340 340 339 338 336 335 334 335 335 334 333 333 334 334 334 333 333 333 333 334 335 334 336 340 346 344 343 343 347 346 346 346 345 345 344 343 342 341 340
334 336 339 340 339 340 339 337 338 336 334 336 337 337 337 337 338 340 340 346 342 342 341 341 341 342 341 342 345 342 340 339 340 340 338 338 339 338 340 337 337 339 339 340 341 341 341 340 339 340 340 339 338 339 338 335 335 333 332 332 332 334 333 332 333 334 336 334 334 340 347 344 342 342 343 346 346 346 346 346 345 345 344 343 342
336 337 336 336 338 336 335 338 337 338 336 338 339 338 337 337 337 338 339 341 341 342 343 343 342 341 341 344 344 346 343 342 342 340 337 337 337 335 335 336 337 337 339 339 339 340 338 339 340 340 340 341 340 339 339 338 337 335 333 333 333 332 332 332 332 333 333 334 333 338 344 346 343 343 343 342 344 345 346 345 345 345 345 344 343
335 335 337 336 337 336 336 338 337 337 336 336 336 336 335 338 340 338 338 340 341 339 342 341 344 343 343 342 345 344 344 342 343 341 340 337 336 335 337 337 337 339 337 336 339 340 339 340 341 342 342 341 339 338 338 338 337 337 337 335 334 334 333 332 333 334 334 335 335 335 336 340 343 344 344 342 341 344 345 344 344 345 345 345 343
335 336 335 336 335 335 337 335 334 336 337 337 337 337 336 338 339 338 339 340 340 342 340 341 343 343 341 342 344 343 342 340 340 341 340 336 337 336 334 334 336 337 336 336 339 338 337 338 338 337 339 339 338 337 339 339 337 336 336 336 336 335 335 335 334 335 335 335 338 337 337 336 336 342 342 344 342 342 344 344 344 344 345 345 343
333 333 335 335 338 338 336 335 336 335 336 336 337 337 336 337 339 339 339 338 338 338 338 337 339 340 341 341 343 344 343 342 342 341 339 339 338 336 335 335 334 336 339 338 338 336 337 337 338 336 341 336 336 336 335 335 335 336 335 335 336 336 337 337 336 336 337 337 340 337 335 335 335 335 337 344 343 342 341 342 343 343 343 344 345
333 333 335 335 334 335 335 335 336 335 335 336 337 337 337 337 337 336 337 336 337 337 338 336 337 338 338 341 342 344 343 342 343 340 339 339 338 337 335 334 335 335 335 339 338 335 336 337 336 336 335 334 335 336 335 334 334 335 335 336 336 337 337 336 337 336 336 336 338 336 337 336 335 336 336 334 340 343 341 341 342 342 342 343 344
334 335 334 333 332 332 333 333 333 333 334 336 336 337 338 337 338 340 337 337 338 337 336 337 337 337 336 334 339 341 340 343 343 341 339 339 338 337 336 336 338 338 337 337 337 336 336 336 337 337 333 333 334 334 334 333 333 334 335 335 335 335 335 335 335 335 336 337 337 337 338 336 335 336 339 335 334 336 340 341 340 340 341 341 342
334 334 333 332 333 334 334 333 333 334 335 335 335 336 336 334 335 337 337 337 337 336 337 339 339 337 338 336 337 341 341 342 342 342 339 339 338 338 338 339 341 339 338 338 337 337 336 336 334 334 334 331 332 332 331 331 331 332 332 332 332 333 333 333 335 335 337 335 335 336 338 338 337 342 336 336 335 335 338 340 341 340 339 339 340
335 335 332 331 332 333 332 331 332 335 333 333 334 336 337 336 335 335 338 336 336 337 337 337 338 339 336 335 337 342 341 339 339 340 339 340 338 337 337 339 340 338 335 335 335 334 333 332 330 332 332 331 329 329 328 328 330 330 330 330 330 331 332 333 333 335 334 334 334 334 335 336 338 337 337 337 336 336 336 337 340 341 341 338 337
334 333 333 333 334 334 333 334 334 335 335 335 334 332 332 332 334 335 334 334 335 336 337 336 336 335 335 336 339 338 338 336 335 336 337 337 336 335 332 333 334 334 332 331 330 330 330 330 328 328 328 328 328 329 325 326 328 328 328 328 329 330 331 332 333 332 332 334 334 336 336 336 337 337 337 338 338 336 335 335 334 334 336 338 339
334 335 335 334 333 331 333 335 335 335 334 333 332 332 332 331 330 331 331 332 333 334 334 334 335 336 337 336 335 335 335 334 333 333 333 335 334 331 329 329 330 331 328 327 326 326 327 326 325 326 324 325 326 325 324 325 325 324 324 326 327 328 329 331 331 332 331 333 334 334 334 335 335 334 336 338 338 338 336 335 336 335 335 336 338
333 334 333 332 332 332 333 332 334 334 332 331 331 330 328 328 330 330 329 330 330 332 332 334 336 335 334 333 332 331 332 332 332 331 330 332 332 330 328 327 327 328 327 325 325 325 326 326 324 324 323 321 321 323 324 325 321 319 321 321 324 326 328 328 326 324 324 326 329 332 334 334 334 333 333 334 335 337 338 337 336 334 334 334 335
330 332 331 332 333 335 333 332 333 333 332 332 331 330 328 328 328 328 329 330 331 332 332 334 332 332 331 331 330 329 328 329 331 329 329 328 329 329 327 326 325 326 326 325 324 326 323 323 322 319 321 320 319 322 323 321 317 316 316 318 319 322 325 326 323 322 322 326 326 328 330 331 331 333 334 334 334 335 336 337 336 336 335 334 334
330 332 333 334 334 333 332 332 333 333 332 333 331 329 329 330 329 329 330 331 334 335 332 331 331 329 329 327 327 326 325 325 326 329 327 326 325 325 325 324 324 325 322 321 320 320 320 320 320 319 317 319 319 322 321 319 315 317 318 316 313 314 318 319 320 320 321 323 323 324 325 325 321 322 324 325 327 330 333 334 335 334 336 335 335
332 333 333 333 334 332 332 332 332 332 332 332 331 332 333 331 330 331 332 333 332 332 330 329 328 324 323 325 324 324 323 323 323 324 325 324 323 323 323 322 322 322 321 318 318 318 318 318 319 318 318 315 316 317 319 316 316 313 311 312 313 313 309 312 313 317 320 319 321 320 321 317 316 317 319 320 320 322 323 322 323 328 332 335 335
331 332 333 334 333 332 332 332 331 330 331 332 332 333 332 330 331 330 332 332 332 329 328 327 326 324 322 321 322 322 322 321 321 321 324 321 320 320 320 320 319 319 318 317 316 317 317 317 317 316 315 313 313 314 314 314 314 315 313 310 310 310 309 310 312 311 315 316 316 316 318 314 313 315 317 316 317 317 317 318 319 320 322 330 335
331 333 333 334 333 332 332 332 331 330 330 331 332 332 330 329 329 328 327 327 326 325 324 323 323 321 319 320 320 321 320 319 318 319 320 320 317 317 317 316 316 317 317 316 316 316 316 316 315 314 314 314 312 310 309 312 314 313 313 313 315 310 307 309 308 304 311 314 313 314 313 312 312 314 313 313 314 314 316 316 317 319 323 326 328
332 333 333 332 330 330 332 332 331 330 331 331 332 331 329 329 327 327 327 326 325 325 325 326 324 322 320 318 318 318 318 317 317 316 317 318 316 315 315 315 315 315 318 315 315 315 315 316 316 314 313 314 312 308 307 308 309 310 311 311 313 312 311 307 302 304 301 306 309 309 309 310 310 312 310 312 312 312 313 315 316 319 325 325 325
331 332 330 329 329 330 331 330 330 331 330 330 330 330 329 329 328 329 328 325 324 322 323 323 324 322 319 317 316 316 317 317 316 315 315 316 316 314 314 314 314 315 316 313 314 314 314 316 315 313 313 313 311 308 306 307 306 306 310 309 309 310 309 308 307 303 302 300 302 306 307 307 308 309 309 310 309 310 311 313 315 315 322 326 325
330 329 329 328 329 329 330 329 329 329 330 331 330 330 330 330 328 327 325 325 324 323 324 323 322 322 319 318 317 316 315 315 315 315 313 314 316 314 312 312 313 314 316 313 313 313 312 312 312 311 310 311 311 310 307 306 306 306 305 306 306 306 306 307 306 305 303 300 300 301 302 305 305 306 308 308 308 309 310 309 314 311 312 321 320
330 331 330 329 329 327 327 328 328 329 330 331 331 331 330 328 325 325 324 323 324 323 323 321 320 319 316 315 315 314 314 313 313 313 313 313 312 313 312 311 311 314 315 311 311 311 310 311 311 311 311 310 309 309 308 306 307 307 306 306 305 305 304 303 303 304 305 304 300 300 301 300 299 302 306 306 307 308 307 308 308 308 309 312 314
330 330 328 327 327 326 326 326 326 326 325 325 326 326 327 326 325 324 323 322 322 322 320 319 318 317 314 313 313 313 312 311 311 311 311 312 311 313 311 311 312 314 312 309 309 309 309 309 310 310 309 308 309 308 308 308 307 306 306 305 304 303 301 300 301 302 302 300 299 299 300 300 300 299 302 305 306 305 306 307 305 306 307 307 307
Wind_Speed
8 11 10 12 13 16 18 17 17 18 18 18 17 18 18 16 14 14 13 13 12 12 13 13 12 12 12 12 12 13 13 13 12 13 12 12 12 12 12 12 13 12 13 13 13 13 13 12 11 11 10 10 9 9 9 9 9 8 9 10 11 11 12 12 13 14 14 13 12 13 13 13 13 13 14 16 16 15 15 15 12 7 5 9 13
12 10 8 10 14 15 18 18 18 18 18 18 17 17 17 15 14 14 14 12 12 13 12 12 12 12 12 12 12 12 12 12 12 12 12 12 12 12 12 12 12 11 12 13 13 13 12 11 11 11 10 9 9 9 8 7 7 7 7 8 9 9 10 11 12 13 14 14 14 14 13 13 13 13 13 15 15 15 14 14 14 6 4 12 13
13 10 8 11 17 17 17 17 18 17 17 17 17 17 16 15 14 14 13 13 12 11 12 11 12 12 12 12 12 12 13 12 12 12 12 12 12 12 12 12 12 12 12 12 12 12 11 11 10 10 10 9 8 7 7 6 7 6 5 6 6 7 8 9 11 12 13 14 15 15 14 13 12 12 13 14 14 14 14 13 13 12 8 13 12
15 9 8 12 17 15 15 18 17 18 17 17 16 16 16 15 14 14 14 13 12 12 11 11 11 11 12 12 12 12 12 12 12 12 13 12 12 12 12 11 12 11 12 12 12 11 11 10 10 10 9 9 8 7 6 6 6 6 5 4 5 6 8 9 8 9 12 14 15 11 5 5 7 12 12 13 13 13 12 13 13 13 13 11 13
14 11 9 9 10 13 16 18 15 17 17 17 16 15 16 15 15 14 14 13 12 11 11 11 11 11 12 12 12 13 13 13 12 12 13 12 12 12 12 12 11 11 12 11 11 10 10 10 9 9 9 8 7 6 5 5 4 3 4 3 4 5 5 6 6 6 9 13 14 7 5 6 4 11 12 12 12 11 11 12 12 12 13 12 12
13 11 9 8 9 11 17 17 18 18 16 16 16 15 15 16 15 14 14 14 12 11 12 11 12 11 12 12 13 13 13 12 12 12 11 11 10 11 11 11 11 11 11 10 9 9 9 9 8 8 8 7 6 5 5 4 4 3 3 3 3 4 5 5 4 3 3 3 2 4 2 5 4 5 11 12 12 11 12 12 11 11 13 12 12
14 10 10 8 7 10 15 17 18 17 16 16 15 15 15 15 16 14 14 13 13 12 12 12 12 11 12 13 13 13 12 12 13 12 11 11 11 10 11 11 10 10 10 9 8 8 9 8 8 7 7 7 6 5 5 5 4 5 5 5 6 5 5 4 3 2 1 3 2 2 1 4 3 4 10 10 11 12 12 12 11 12 12 11 12
12 10 10 9 8 12 16 17 18 17 17 16 15 15 15 16 16 14 13 13 12 12 13 12 12 12 13 13 13 13 13 13 13 12 11 11 11 11 11 11 11 10 9 9 8 8 8 7 6 7 7 7 5 5 5 4 5 5 6 6 6 6 7 6 6 5 6 3 2 1 2 4 4 3 9 10 11 12 12 11 10 11 10 11 11
12 11 10 9 9 17 16 15 17 17 17 17 16 15 15 15 15 14 13 13 12 13 13 12 13 13 13 12 13 13 13 13 13 12 12 12 12 11 11 11 10 9 9 8 7 7 6 6 6 6 6 6 4 4 4 5 6 5 6 7 7 7 7 8 8 9 6 3 3 4 5 5 3 4 7 9 9 11 11 9 8 10 11 10 10
12 11 10 9 10 16 14 14 16 17 17 17 16 16 15 15 14 14 14 13 13 13 13 14 13 13 12 13 13 13 13 13 13 12 12 11 11 10 10 9 9 8 8 7 6 6 6 6 6 5 5 5 4 2 4 5 6 7 6 7 8 8 8 8 10 7 3 5 3 8 7 9 4 3 6 8 9 9 9 10 7 7 7 9 10
13 11 10 10 13 14 14 14 15 16 16 16 15 15 15 14 14 14 14 14 14 13 13 14 14 14 13 13 13 13 13 12 12 12 11 11 10 10 10 9 8 7 7 6 6 6 6 6 6 6 5 4 2 1 3 4 5 7 7 7 8 9 9 9 10 4 3 3 7 6 9 13 5 3 8 9 8 8 9 9 8 7 9 9 9
13 11 9 9 16 13 14 14 15 15 15 14 14 15 14 14 14 14 14 14 14 14 14 14 14 14 13 12 12 12 13 12 11 10 10 10 10 9 8 8 7 7 6 6 6 6 7 7 7 7 6 5 3 1 2 4 6 7 7 8 9 9 9 10 7 6 4 2 9 7 7 6 4 5 10 9 8 8 9 8 8 9 9 8 9
13 11 10 9 9 12 12 13 14 14 15 15 14 15 14 14 14 14 15 13 14 15 15 15 14 12 12 12 12 12 12 11 11 11 10 10 9 9 8 7 7 7 6 6 5 6 6 6 7 7 7 5 3 1 2 3 5 6 7 8 9 9 10 11 5 5 3 2 6 7 7 6 4 9 9 8 8 7 8 8 8 7 8 8 8
13 11 10 9 8 14 12 12 13 13 15 14 14 13 13 13 14 15 15 14 15 15 13 14 13 12 12 11 11 10 11 11 10 10 10 9 9 8 8 7 6 6 5 5 5 5 6 6 7 7 7 6 5 2 1 3 4 6 7 7 8 9 10 8 7 5 6 4 6 7 5 4 4 8 8 8 7 7 7 7 7 7 7 7 8
15 13 11 9 9 9 16 11 12 13 13 12 12 12 14 14 14 14 15 16 16 14 14 14 12 12 12 11 11 11 10 10 10 10 10 9 8 8 7 6 6 5 5 4 4 4 5 6 6 6 6 5 4 3 3 3 4 6 6 7 7 8 9 5 5 5 5 2 6 7 6 6 7 8 9 8 7 6 6 6 7 7 7 6 6
16 14 12 9 9 9 9 13 12 12 12 13 12 14 15 15 15 15 14 14 14 13 13 13 12 11 11 11 11 11 11 11 11 10 10 10 9 8 7 6 5 5 4 3 3 3 3 5 5 5 5 4 3 2 2 3 5 6 7 7 8 9 9 7 5 4 2 3 4 6 5 5 9 8 8 8 7 6 5 6 6 6 6 6 5
13 13 13 11 10 8 8 8 9 15 13 12 13 16 15 14 14 15 14 15 15 14 13 12 12 12 11 11 11 10 11 11 10 10 10 10 9 7 6 6 5 4 3 3 2 2 3 2 4 4 4 4 3 3 3 4 6 7 7 8 9 9 9 9 5 5 4 1 6 4 5 5 8 8 8 7 6 6 5 5 5 4 6 5 5
12 13 11 11 10 9 7 8 9 8 7 11 14 16 16 16 13 13 14 14 13 13 13 12 12 11 11 11 10 10 10 10 10 9 9 9 8 7 5 5 5 4 3 2 1 1 1 2 3 3 4 3 4 3 3 5 6 7 8 8 8 9 9 9 3 3 1 4 5 6 6 6 8 8 8 6 5 5 4 4 3 4 5 4 6
12 11 11 11 10 9 8 7 6 7 6 6 5 11 16 15 14 14 14 13 13 12 12 12 11 11 11 11 11 11 10 10 10 9 8 8 8 6 5 3 4 4 3 2 1 1 2 2 2 2 3 3 3 3 4 5 6 7 9 9 10 10 12 7 4 4 1 4 5 6 6 10 9 9 8 7 6 5 3 3 5 4 4 2 5
11 11 10 9 10 9 7 6 6 6 6 5 6 7 12 16 14 14 13 12 12 11 11 11 11 10 11 11 11 8 8 8 11 7 8 9 8 5 5 2 2 2 2 2 1 1 1 2 2 2 2 2 3 3 5 6 6 7 8 8 9 10 6 5 4 5 1 3 3 5 9 12 11 10 10 8 6 5 4 4 4 4 2 2 3
9 10 9 9 9 9 8 6 6 6 6 6 5 6 9 14 12 13 12 11 10 10 10 10 9 9 8 9 8 4 3 3 5 4 7 3 6 7 6 4 2 2 1 1 1 2 3 4 3 2 2 2 2 4 5 6 7 7 8 8 8 5 5 5 5 2 1 4 4 5 11 12 12 11 10 9 7 5 5 4 4 3 2 1 1
11 9 9 11 10 8 8 7 6 7 6 5 5 5 6 8 5 6 5 7 8 9 7 5 7 3 7 5 4 4 4 3 3 6 3 3 4 6 5 4 2 3 3 3 2 2 4 4 5 5 4 3 3 2 3 6 9 9 7 8 5 5 5 6 6 2 3 4 4 6 12 12 12 12 11 9 7 6 6 6 4 5 2 1 1
10 9 10 11 9 8 8 7 7 7 7 6 5 5 6 5 5 4 4 6 6 6 4 5 3 4 4 3 3 3 4 4 3 6 4 5 3 5 4 3 2 3 4 6 6 5 5 6 7 7 6 4 3 3 4 4 5 9 8 5 4 5 5 5 6 5 3 5 5 9 12 12 12 12 12 11 8 7 6 7 5 5 4 3 2
9 10 11 9 9 8 8 7 8 8 7 6 6 5 5 5 5 3 4 4 3 4 4 4 4 4 4 3 2 3 2 2 5 5 6 2 1 4 3 3 3 4 5 4 6 7 8 8 8 8 5 3 4 4 4 4 5 5 5 5 5 5 5 5 5 7 3 5 5 10 11 11 12 13 12 12 11 10 8 8 8 7 6 6 5
8 9 9 9 9 9 8 8 8 6 6 7 6 6 5 6 5 4 5 4 4 4 4 4 3 3 2 4 3 3 3 4 5 4 3 2 1 0 1 1 2 2 4 3 3 3 4 4 3 5 4 4 5 6 5 5 5 5 5 5 5 5 5 5 6 7 2 5 5 13 12 11 11 12 13 13 14 13 12 11 10 9 8 7 7
8 9 9 9 8 9 9 8 7 7 7 7 7 7 6 5 5 5 6 5 5 5 5 4 2 3 3 4 4 4 3 4 3 2 1 1 2 2 0 1 1 1 1 1 3 3 4 5 4 5 5 4 5 5 5 5 5 6 6 5 5 5 5 5 6 4 1 4 5 11 10 11 12 13 13 13 13 14 13 12 12 11 10 10 9
5 5 7 7 8 8 9 8 7 7 7 7 6 6 5 6 6 6 5 5 5 4 3 3 4 3 3 3 4 4 4 3 3 3 2 2 2 2 2 0 2 2 1 1 1 3 3 4 5 6 4 3 5 5 5 6 7 7 7 6 5 6 6 5 2 3 2 4 6 12 12 12 11 11 12 12 13 14 13 13 13 12 11 11 12
3 4 4 7 8 9 9 8 7 7 7 6 6 6 5 5 6 7 5 5 5 2 4 3 3 4 3 3 2 4 3 2 2 2 0 1 1 1 2 2 4 2 2 3 2 3 4 3 3 4 5 5 6 6 5 3 3 4 4 4 5 5 3 2 3 4 3 2 3 8 9 9 9 9 10 12 13 13 13 13 13 13 12 12 14
3 5 6 7 8 9 8 7 6 7 7 7 7 6 7 6 3 2 3 2 4 4 4 3 4 2 2 2 2 3 2 2 2 1 1 0 0 1 1 3 2 2 2 3 3 5 5 3 2 1 2 3 2 3 5 4 5 3 1 3 3 4 4 4 3 3 1 4 3 6 9 10 9 9 9 11 12 12 12 13 13 13 13 13 14
5 0 4 6 6 6 4 6 5 7 8 6 6 6 6 5 4 4 4 6 5 4 3 4 3 3 1 1 1 2 2 1 2 2 3 1 0 1 2 4 4 3 4 4 5 4 5 5 5 6 5 4 5 5 5 6 5 4 5 5 3 3 3 4 5 5 2 1 2 2 9 10 9 9 9 10 11 12 13 13 13 14 14 14 13
7 6 3 4 7 8 6 3 7 5 6 7 5 7 9 9 7 6 7 8 9 7 3 4 3 2 1 0 1 0 0 2 2 3 2 1 1 1 1 2 1 3 3 4 4 3 4 4 4 5 5 4 4 5 5 5 5 5 4 4 4 3 3 4 3 4 3 2 0 1 3 9 9 9 9 9 10 12 14 13 14 14 15 15 14
9 5 2 6 6 6 6 3 7 8 8 7 7 8 7 5 5 5 7 8 7 5 6 2 2 0 0 0 0 1 1 1 3 2 3 2 1 2 3 3 4 2 3 4 5 4 4 4 4 4 3 4 5 5 4 4 5 5 5 4 3 3 3 4 3 3 2 2 3 3 2 3 7 8 9 10 11 12 14 14 14 14 15 15 15
7 9 6 7 7 4 7 8 7 7 8 7 6 7 6 6 6 6 6 8 6 3 5 8 4 1 0 0 1 2 1 1 1 2 2 3 1 2 2 1 1 3 2 2 2 4 4 5 5 4 5 5 5 6 6 5 5 5 5 5 5 5 5 3 3 2 3 3 4 4 4 3 3 6 9 11 12 13 14 15 15 15 15 16 16
8 8 6 6 4 7 6 4 6 7 6 5 5 6 6 6 6 6 6 5 5 6 5 5 8 6 1 0 2 1 0 0 3 4 2 2 3 2 2 2 1 2 3 2 3 5 5 5 5 4 4 5 5 5 5 5 5 4 4 4 5 5 5 4 4 3 3 3 4 3 5 5 5 5 5 8 12 13 14 15 15 15 15 16 16
8 6 7 8 9 7 5 5 5 6 5 5 5 5 5 5 6 6 6 5 4 5 5 5 4 7 9 6 3 3 4 4 4 5 4 4 4 2 2 1 1 2 2 2 0 1 2 3 3 4 4 5 5 5 5 5 5 5 5 4 5 5 5 5 4 4 4 4 4 4 4 4 4 5 5 4 6 11 14 14 15 15 15 15 16
6 6 8 9 9 7 6 7 4 5 5 5 5 5 6 6 6 6 6 6 6 6 5 4 5 5 7 9 8 5 5 5 4 4 5 4 4 4 0 2 3 3 3 3 3 5 5 5 6 5 6 6 5 5 5 5 5 5 5 5 5 5 6 6 6 5 5 4 4 4 5 4 4 5 6 5 5 6 12 14 15 15 14 15 16
8 5 8 8 8 8 7 7 5 5 6 5 4 5 6 7 7 7 7 7 6 5 5 4 4 5 5 4 7 3 3 3 4 4 5 5 5 4 3 1 0 2 5 5 6 7 7 7 7 7 6 5 6 6 6 7 6 5 5 5 6 6 6 6 6 6 4 4 4 4 4 5 5 6 5 6 5 5 8 12 14 14 15 15 15
4 6 7 8 7 7 7 5 4 5 6 5 5 5 6 6 6 7 8 8 6 5 6 6 4 4 3 2 8 3 7 8 8 7 7 7 7 7 6 6 5 6 7 7 7 7 6 6 7 7 7 6 6 6 7 7 6 7 7 7 7 7 7 7 7 5 5 5 5 4 5 4 5 5 5 5 6 5 5 8 12 13 14 14 15
7 8 8 7 6 6 6 6 6 6 5 6 7 7 7 6 6 7 8 7 5 5 5 7 5 4 4 4 1 7 8 8 8 8 7 7 7 7 7 7 6 6 7 7 7 7 6 6 6 6 7 6 6 5 6 6 6 5 5 7 7 7 7 6 6 6 5 4 4 4 3 4 5 5 5 5 6 6 6 5 5 5 8 12 13
7 7 8 7 7 5 4 5 5 6 6 6 6 6 6 7 8 7 7 6 5 6 6 6 6 6 5 6 8 7 8 7 8 8 8 7 7 7 7 7 7 6 6 7 6 6 6 6 6 6 7 7 6 6 7 7 5 4 5 6 6 7 7 7 4 5 7 7 6 6 6 6 5 5 5 5 5 5 6 6 5 6 6 8 12
6 8 8 7 7 6 6 6 5 6 6 6 6 7 7 6 5 6 8 6 7 7 6 4 8 9 9 8 8 7 7 7 7 7 7 7 6 6 7 7 6 6 5 5 4 5 5 4 4 4 6 6 6 7 8 6 6 7 4 3 5 6 4 5 7 9 10 6 7 7 6 7 5 6 8 7 4 3 5 6 6 6 6 6 7
5 7 8 8 6 6 6 5 4 5 5 6 6 5 3 5 7 7 7 5 6 7 8 8 9 9 9 8 7 7 6 7 6 6 7 7 7 6 6 6 5 5 4 4 4 4 5 5 4 5 4 5 4 7 8 7 6 7 7 8 5 6 2 3 7 10 10 6 7 7 7 8 11 9 7 7 8 6 5 5 5 5 5 6 7
6 6 8 8 7 7 6 6 5 6 6 6 6 6 4 4 5 5 7 5 3 7 9 9 9 9 10 9 8 8 7 7 6 6 6 7 6 5 5 4 4 3 4 6 6 7 6 7 6 6 6 4 3 5 9 10 6 7 4 3 5 8 6 7 6 12 8 8 7 7 8 9 11 9 8 7 8 10 8 7 6 5 7 7 7
5 6 6 7 6 6 6 6 6 5 6 5 5 6 7 6 6 7 5 6 8 9 10 9 10 11 10 8 8 7 7 6 6 5 5 6 6 5 4 4 6 6 6 6 6 7 7 7 7 8 6 7 6 7 9 10 8 8 5 2 4 3 6 5 9 8 6 10 8 10 9 12 13 12 10 10 11 10 10 10 9 6 7 8 8
6 6 5 5 5 6 6 6 6 5 5 5 6 8 8 7 5 3 4 8 8 8 9 9 9 8 8 8 7 7 7 6 6 7 6 6 5 5 5 5 6 5 6 6 6 6 6 6 7 7 7 5 6 5 8 8 9 8 4 4 3 3 4 8 11 3 9 6 10 12 11 15 15 12 11 12 12 11 11 11 11 10 11 10 7
5 4 3 4 5 5 5 5 5 5 6 5 6 7 7 8 7 7 7 6 7 7 9 8 8 7 7 6 7 6 6 7 6 6 6 5 6 6 6 6 5 6 6 5 5 6 7 7 7 6 6 6 5 6 5 6 6 8 6 4 2 4 6 6 6 7 6 3 7 9 10 12 12 10 12 13 14 13 12 12 12 10 9 10 9
5 5 5 4 3 4 4 5 5 5 5 4 4 6 6 5 5 6 6 7 9 7 7 8 8 7 7 8 7 6 6 6 6 6 5 4 5 6 6 6 6 6 5 6 6 6 6 6 7 7 6 5 5 6 6 5 3 6 6 6 4 4 4 7 6 6 8 4 3 8 9 10 11 9 12 11 13 12 12 11 12 9 8 8 9
6 6 5 4 4 4 5 4 3 4 3 4 5 5 7 6 7 7 8 8 9 9 9 8 8 8 8 7 7 7 7 6 6 6 6 5 6 7 7 7 6 6 6 6 6 6 6 6 6 6 6 6 6 6 5 5 6 5 4 5 3 3 4 5 3 3 3 9 12 5 2 8 8 7 10 11 12 11 11 11 10 11 8 7 10
6 6 5 3 4 4 4 4 4 4 4 4 6 5 6 7 8 9 9 8 9 8 7 7 8 8 8 6 8 7 7 7 6 5 6 6 6 6 7 7 6 5 6 6 5 6 7 6 6 7 7 6 6 4 4 6 4 5 3 4 3 3 3 3 3 2 4 7 7 10 15 7 3 6 8 9 11 10 9 10 8 10 10 7 10
7 6 5 4 4 4 5 6 5 4 4 4 4 4 5 7 8 9 11 9 7 7 7 8 8 7 9 8 7 7 6 6 5 5 6 6 6 6 6 7 6 6 6 6 6 6 7 6 6 6 6 6 5 5 6 5 5 5 5 5 5 5 3 4 6 6 3 6 7 11 11 15 16 9 7 10 11 10 11 9 9 10 10 9 10
7 7 6 5 4 4 6 6 4 5 6 6 6 6 6 6 8 9 10 10 9 8 8 7 7 8 8 7 6 6 5 5 5 6 6 6 6 6 6 6 6 6 6 7 6 7 7 6 6 6 7 7 5 6 6 6 5 7 7 7 7 7 6 7 7 7 7 7 7 6 8 9 10 12 9 9 9 10 11 10 12 11 11 10 11
Wind_Direction
133 134 136 136 127 122 123 123 120 120 118 117 114 111 110 109 107 101 96 94 93 94 89 86 92 93 91 87 86 85 86 87 87 88 92 96 98 99 100 99 99 99 100 98 93 89 85 81 78 74 71 68 67 69 71 73 77 78 78 83 88 94 96 93 92 93 93 92 87 88 87 85 79 75 73 72 79 83 81 79 71 57 50 70 70
142 136 135 134 129 126 125 126 124 121 120 118 115 114 112 110 106 103 100 98 97 91 90 91 94 95 92 90 88 87 88 90 92 95 96 98 100 100 102 103 103 105 99 96 93 91 87 83 80 77 71 69 66 67 70 74 81 86 84 87 94 98 94 96 99 98 98 93 88 87 84 83 80 78 76 76 78 80 81 80 78 70 69 74 73
128 133 136 135 130 129 128 127 125 123 122 120 117 115 113 110 108 105 104 101 94 93 94 96 96 94 95 95 93 90 90 93 96 98 99 100 101 102 102 105 108 106 103 97 96 92 91 87 81 77 74 69 68 69 72 80 82 80 82 83 93 93 93 96 103 107 109 102 95 88 79 74 74 76 78 78 80 79 80 80 78 76 77 79 72
128 132 137 135 131 129 129 129 127 125 124 123 118 117 115 111 110 109 107 102 99 98 99 101 99 96 97 95 95 95 94 93 95 96 97 99 101 103 107 104 105 106 103 101 99 97 91 87 82 75 73 71 67 65 68 72 78 78 75 75 73 85 81 94 102 113 114 103 96 86 77 65 67 76 77 78 78 77 77 80 78 80 75 72 73
127 133 133 133 132 131 130 129 127 127 126 126 122 119 116 114 112 111 109 105 103 103 104 103 102 102 100 97 96 95 96 94 93 95 100 102 103 106 107 111 109 106 103 102 99 95 91 86 81 77 74 72 65 62 62 68 72 77 70 56 50 46 58 73 96 114 124 108 94 79 87 88 73 80 81 83 81 80 84 87 84 82 77 75 76
131 131 129 131 133 134 132 130 129 129 129 129 125 122 118 117 117 115 114 111 107 107 106 105 104 104 102 100 99 97 96 95 93 94 96 98 97 102 104 103 103 102 98 97 93 90 89 84 82 79 77 73 62 58 54 52 65 56 48 52 35 45 40 37 43 88 149 206 345 66 73 91 91 92 88 84 82 82 82 77 74 79 78 75 76
130 131 130 132 131 136 134 131 130 131 131 130 128 125 122 121 120 119 117 114 112 109 107 106 106 105 103 101 100 98 95 96 99 94 97 99 102 101 100 102 103 100 98 96 97 90 82 81 77 76 77 71 58 48 48 39 29 31 29 18 30 21 36 24 29 342 340 288 346 61 84 100 84 69 84 85 88 88 86 82 76 82 90 82 78
126 129 130 131 132 138 135 132 132 132 133 133 130 129 127 125 124 121 118 116 114 111 108 108 105 104 103 102 100 98 97 97 98 95 93 94 92 91 91 92 93 93 94 92 86 80 80 75 75 77 78 78 54 38 38 32 23 27 21 18 18 22 7 6 345 337 304 292 225 134 137 96 88 73 84 91 94 94 89 84 85 82 80 80 82
124 126 128 127 133 139 136 133 133 133 134 134 133 131 130 127 125 123 120 117 115 114 112 110 108 105 103 101 100 98 99 98 97 98 94 91 91 90 91 90 85 83 79 73 75 74 68 63 62 62 68 76 68 25 20 10 15 13 14 9 8 5 356 351 341 319 307 269 243 145 126 105 91 88 94 89 92 85 87 80 74 84 88 88 87
121 120 126 130 137 139 136 134 134 135 135 134 133 133 130 128 126 123 121 119 117 117 117 112 108 105 103 101 98 98 99 99 99 99 101 97 95 93 91 92 90 87 85 83 81 75 64 52 48 55 64 71 69 14 8 357 357 359 360 2 357 353 352 343 331 316 290 290 130 125 123 114 108 98 106 99 94 90 88 97 100 93 85 83 81
116 121 124 130 137 137 137 138 137 136 136 135 135 133 131 128 126 123 122 121 119 119 115 113 108 107 106 104 103 101 99 99 101 103 103 102 101 97 88 82 83 76 73 71 70 65 58 52 48 54 70 86 71 12 341 341 343 345 354 353 352 352 349 338 333 323 319 324 110 104 113 114 110 124 109 103 96 93 90 89 83 84 88 80 79
122 123 126 130 136 136 141 141 138 137 136 136 135 133 132 130 126 125 123 122 121 119 114 111 109 109 108 106 105 103 101 101 99 101 102 102 96 91 92 84 82 79 69 65 62 59 53 51 50 57 66 79 113 276 322 316 329 336 345 344 347 343 342 339 332 322 328 196 115 119 115 116 128 124 117 104 100 97 94 86 83 77 79 78 77
122 123 127 129 130 139 137 137 136 135 137 137 135 134 133 129 126 126 123 121 122 118 115 112 111 110 111 110 109 107 106 105 106 105 102 100 98 94 90 87 81 75 68 61 60 56 49 50 53 55 58 67 81 109 298 304 316 326 333 340 338 338 339 340 326 311 337 93 114 113 123 120 131 124 116 111 104 102 94 91 86 82 76 71 71
120 123 124 126 133 137 134 134 134 136 135 136 136 133 130 129 127 125 124 123 120 116 113 114 115 114 113 114 112 112 113 114 115 110 104 100 96 91 86 82 76 71 66 59 53 51 50 47 52 55 56 52 54 56 317 304 314 322 331 332 332 337 341 341 332 335 338 142 106 117 116 120 120 123 118 111 106 105 90 90 95 87 82 72 70
126 126 127 131 134 134 137 134 134 135 132 129 129 129 127 125 124 125 126 124 121 119 118 118 118 121 121 120 121 121 119 117 112 111 108 104 100 94 90 86 77 71 68 56 49 48 47 47 47 52 56 55 49 51 4 329 318 318 323 322 329 332 341 338 331 326 353 131 123 126 127 124 131 132 119 113 115 104 101 92 95 93 79 67 56
126 128 128 129 132 140 136 142 133 130 128 128 130 129 127 128 128 128 126 124 122 122 122 123 126 128 130 128 129 129 128 126 124 124 122 116 110 105 99 93 89 83 73 70 54 38 47 46 46 47 49 46 29 5 15 325 316 313 317 322 331 332 337 340 307 304 27 109 124 115 133 126 143 138 128 124 125 123 102 108 99 88 76 66 60
124 125 130 134 139 136 140 132 131 130 125 128 131 131 128 130 130 128 127 128 127 127 129 132 134 135 137 137 134 135 134 133 133 130 127 123 118 114 113 107 98 94 86 74 60 43 29 44 41 45 48 46 20 1 322 314 313 311 314 327 330 329 324 326 327 322 2 137 115 124 116 133 145 142 135 131 125 125 120 103 78 78 73 67 55
125 131 133 137 139 136 128 134 139 128 130 133 134 133 133 132 131 130 130 131 131 133 135 139 139 138 136 136 134 134 135 137 136 133 127 126 127 126 126 122 119 116 118 93 78 30 19 354 23 42 41 29 6 319 319 307 308 308 311 316 316 315 316 322 313 309 332 146 132 138 140 151 148 146 135 131 132 121 105 106 91 84 85 63 48
131 133 136 138 138 135 134 134 130 127 121 119 127 136 135 134 135 134 135 136 138 142 142 142 141 138 138 141 145 146 145 143 137 136 136 134 134 134 128 127 132 136 137 140 130 191 295 334 326 25 37 23 348 334 299 300 297 301 304 308 318 321 325 333 330 323 5 166 147 140 149 156 152 148 142 138 141 139 117 115 107 97 96 43 52
130 138 142 138 139 137 140 137 134 133 127 122 128 132 138 138 138 139 141 143 145 146 146 143 143 147 152 152 151 152 149 146 145 143 147 147 144 141 145 158 187 153 156 165 203 221 263 274 306 334 3 9 339 309 296 284 289 293 299 308 315 321 323 311 309 307 330 162 148 145 160 159 155 149 144 148 151 158 140 129 132 135 119 43 63
139 148 143 138 130 139 144 138 137 134 126 122 125 130 143 139 139 146 150 147 148 149 146 144 149 160 165 159 151 145 153 155 148 154 159 170 159 156 158 180 203 230 227 202 215 257 271 254 277 290 294 317 310 289 274 268 276 281 289 296 299 309 298 298 296 272 195 154 147 162 162 159 155 152 151 151 160 159 151 153 170 166 188 220 71
152 150 141 134 138 146 143 142 141 134 127 126 126 133 133 135 143 151 148 152 155 154 152 157 164 179 173 167 160 173 163 175 181 165 166 167 166 166 170 183 212 274 292 299 282 277 269 270 269 272 267 268 281 279 273 257 251 254 260 269 289 285 293 292 297 301 172 150 162 170 166 162 159 158 156 153 166 178 175 177 194 191 192 241 152
157 141 134 140 146 141 143 149 143 137 132 126 130 132 135 143 153 148 150 160 168 160 166 171 171 185 189 169 183 208 172 180 197 168 167 173 170 177 186 198 231 272 293 304 307 290 268 267 267 265 261 260 266 259 266 259 261 255 250 260 267 264 265 278 289 294 167 158 167 182 169 168 165 166 162 161 170 185 192 196 201 197 203 235 175
139 135 136 141 142 141 151 144 138 141 135 135 137 148 149 149 152 151 156 174 186 173 191 187 193 192 193 176 174 172 134 157 174 154 140 124 188 180 206 241 253 257 260 272 294 295 285 272 264 258 267 261 239 248 236 236 237 252 254 241 250 257 252 252 254 267 169 166 175 179 176 174 173 173 168 168 178 185 198 205 200 205 201 222 233
131 124 127 134 139 139 138 136 142 144 136 136 147 162 161 153 156 158 168 184 197 188 205 215 201 188 149 123 103 83 77 77 71 69 73 85 104 269 267 274 275 272 251 243 252 268 287 288 278 265 261 255 240 237 226 225 223 227 232 226 237 253 260 252 259 247 187 187 170 183 183 180 179 179 176 179 183 190 196 203 201 206 205 217 228
125 123 127 133 141 137 139 145 150 150 148 150 163 174 162 156 162 170 178 194 194 196 205 200 133 122 88 80 86 73 57 71 69 86 76 55 60 28 324 261 279 292 349 233 243 255 246 244 263 263 252 257 267 252 234 230 211 216 222 230 231 248 257 275 271 292 75 165 193 182 185 189 188 187 184 185 188 194 200 205 210 210 204 212 209
98 101 107 129 135 140 146 152 155 155 154 158 160 165 154 162 168 176 171 197 203 206 199 128 120 103 93 85 81 82 71 59 68 29 27 37 53 2 317 350 292 310 305 303 303 296 241 226 243 251 257 267 269 276 273 262 239 213 216 220 218 232 243 246 274 275 183 175 180 188 195 196 194 196 191 193 197 200 205 211 212 216 207 216 197
32 88 138 141 142 154 156 155 171 155 161 163 155 151 161 162 171 175 168 192 193 202 96 106 97 86 82 78 84 104 123 129 109 112 32 30 17 293 317 343 311 312 285 287 281 220 242 246 263 264 255 256 259 263 257 260 227 214 232 228 222 225 234 282 316 324 349 122 172 201 201 203 205 207 203 204 210 211 213 217 220 222 219 214 196
126 181 157 145 154 158 151 159 151 136 155 155 140 145 156 148 99 111 141 101 89 96 115 99 89 77 79 92 117 102 99 105 138 151 113 16 335 165 17 318 321 326 314 327 334 334 333 320 294 220 220 248 250 310 344 334 348 17 324 288 293 316 320 312 308 304 309 115 155 197 201 205 209 212 213 216 221 222 224 226 228 230 231 227 213
99 346 179 164 133 102 94 115 117 128 140 118 133 132 128 107 61 73 72 68 64 88 95 93 92 89 56 80 163 148 127 151 129 141 121 122 285 9 38 336 327 324 341 2 345 339 326 331 336 346 349 346 341 334 350 349 346 339 332 320 326 316 306 300 298 288 279 124 150 192 205 206 210 212 219 222 227 230 232 233 235 236 236 237 229
157 169 169 125 106 107 127 127 123 118 74 52 63 69 61 55 55 51 40 47 19 11 32 71 69 100 162 69 28 118 125 90 109 113 83 102 24 74 96 269 317 356 354 342 326 319 316 326 324 320 319 324 326 328 337 332 331 324 326 327 305 298 295 286 281 279 284 257 114 192 197 202 205 214 220 229 234 233 231 236 242 242 243 244 247
121 132 146 105 110 130 145 121 69 65 72 59 58 63 65 61 70 74 80 77 57 348 336 20 104 114 168 346 10 82 100 65 95 107 135 100 318 37 4 22 2 9 6 332 320 320 327 322 325 321 316 328 335 329 315 316 315 311 310 313 299 293 273 273 276 286 294 261 239 218 192 196 215 221 225 229 234 235 232 238 243 246 247 248 248
142 144 173 135 136 147 74 61 84 82 86 90 102 111 107 81 56 59 50 58 70 87 6 339 351 21 62 350 47 79 81 113 90 119 103 129 115 47 19 38 11 312 325 295 316 340 352 352 341 343 352 351 346 330 325 322 319 313 319 315 327 315 303 292 288 269 249 228 213 193 198 206 227 232 230 234 235 233 233 236 240 246 250 249 250
141 147 144 122 93 68 89 91 92 91 85 102 112 102 109 98 98 94 92 90 82 81 92 47 339 320 358 335 41 56 122 83 63 64 75 80 67 62 7 8 343 300 309 311 2 342 348 342 325 348 350 357 346 329 336 332 314 314 323 310 320 299 293 298 292 292 292 271 204 201 207 185 215 235 239 236 237 235 235 236 239 244 248 251 251
131 135 115 81 78 86 97 87 78 80 80 82 84 81 86 84 88 98 102 99 76 78 58 76 51 5 340 337 24 29 17 33 49 64 65 81 97 55 1 315 227 265 281 301 104 275 329 346 339 352 351 352 344 335 340 327 320 314 304 307 299 298 296 283 278 286 278 266 211 226 227 222 209 232 242 241 248 241 239 240 239 243 247 249 248
107 105 93 94 91 93 86 93 91 98 93 88 87 93 99 101 103 89 81 80 84 89 78 32 47 58 37 334 342 26 20 15 45 56 60 64 84 95 269 309 317 306 332 352 27 11 1 1 350 353 357 343 342 329 324 315 311 307 301 302 293 288 284 281 280 273 260 243 214 232 248 237 219 226 241 236 235 249 247 244 243 243 246 250 253
119 129 104 96 95 96 100 102 111 114 103 101 95 91 96 97 96 103 99 82 84 90 95 89 55 39 70 352 306 343 23 14 29 35 54 47 48 41 51 83 331 358 356 8 16 7 5 6 358 357 358 336 336 326 331 336 325 318 314 308 299 293 284 275 268 259 265 260 255 247 244 249 230 221 234 248 246 240 253 251 250 249 249 251 251
93 88 96 101 106 113 119 118 127 115 116 118 98 96 98 103 103 102 97 92 95 91 91 84 87 97 66 1 273 356 38 35 30 31 43 44 40 34 22 14 13 28 33 32 29 21 19 16 5 1 358 354 345 351 358 344 337 329 324 319 312 305 291 283 270 273 265 266 264 255 241 236 240 242 228 230 246 243 239 252 254 256 254 252 251
93 95 98 106 111 122 130 136 133 127 121 115 110 103 105 97 92 95 96 104 102 103 103 96 93 91 76 236 347 40 44 39 35 33 45 45 43 38 35 23 23 35 39 38 27 19 18 18 19 5 1 1 355 12 356 335 333 330 336 324 314 301 295 285 277 271 286 287 289 263 278 253 231 237 235 231 232 238 243 239 247 251 258 254 252
102 108 107 114 121 134 143 144 136 129 122 120 123 119 115 116 116 111 95 88 100 98 89 109 139 118 108 62 51 51 47 43 39 35 38 43 44 40 35 28 27 37 42 38 24 16 8 16 12 12 6 358 5 4 352 341 329 320 327 323 310 310 323 323 356 26 12 356 318 318 315 298 282 276 239 241 224 222 233 241 238 242 247 255 253
114 117 120 135 148 156 152 140 145 137 134 133 132 133 126 120 101 103 111 129 120 115 110 117 89 80 74 70 61 56 52 48 41 39 36 40 46 43 37 28 25 35 43 38 28 15 12 22 17 16 15 9 357 0 357 337 350 342 337 320 319 314 330 39 47 24 5 341 345 339 323 323 328 326 349 314 287 254 234 235 237 240 242 246 255
154 138 142 153 157 151 141 142 146 141 138 136 137 137 152 143 130 129 122 136 134 114 99 84 82 78 74 68 63 57 51 49 46 41 42 40 41 41 35 29 27 30 41 33 25 17 20 21 20 25 13 20 2 358 0 0 21 347 330 334 329 325 327 39 35 12 352 356 350 353 354 356 5 352 343 332 321 301 289 285 280 277 274 260 254
158 150 148 153 150 139 149 153 155 143 136 139 141 141 132 119 122 135 138 135 103 96 93 92 86 78 69 64 62 55 50 44 37 40 44 39 39 41 30 17 24 24 35 31 21 19 18 21 21 29 9 10 4 9 19 27 10 329 304 345 344 345 341 358 358 353 348 350 353 3 11 26 10 360 349 347 356 349 348 339 332 316 288 275 270
152 142 148 150 148 150 157 150 148 142 136 143 139 124 115 111 104 131 142 114 111 95 90 86 78 75 69 69 61 58 51 47 36 32 43 41 40 35 21 23 24 29 47 46 32 29 24 25 27 29 29 20 11 13 28 22 28 3 18 351 296 343 329 8 340 317 359 349 10 10 21 12 5 357 355 2 0 3 1 352 345 325 298 284 274
150 155 162 158 148 149 152 146 138 130 130 136 132 123 118 114 118 104 113 99 88 89 85 75 78 79 78 65 64 59 54 47 38 38 43 44 38 36 31 30 39 41 48 48 39 33 34 31 34 36 36 39 28 19 20 18 31 25 24 356 357 8 7 321 324 273 22 337 19 12 16 11 359 352 359 359 355 359 353 345 340 343 351 349 336
162 153 137 140 142 141 138 123 112 117 128 134 130 125 129 130 134 132 114 99 94 92 92 95 92 84 82 82 66 57 57 52 45 40 42 46 40 38 38 37 38 40 43 45 41 40 35 39 32 38 33 31 56 44 26 9 33 23 31 42 352 9 337 321 14 320 348 357 17 15 14 8 351 349 3 356 356 350 347 343 338 348 3 21 26
133 124 115 120 122 128 124 121 122 123 126 129 121 116 108 103 109 108 106 107 103 87 89 90 98 100 92 77 69 51 47 53 46 42 37 48 51 43 40 39 39 39 36 37 40 42 41 46 36 35 33 34 47 57 37 10 3 24 12 11 30 37 24 29 8 317 332 347 60 4 6 3 348 3 2 353 350 343 341 340 340 358 10 18 23
122 119 114 122 131 124 119 116 115 118 122 128 108 109 115 116 111 104 103 100 102 106 98 94 94 98 89 87 77 59 46 42 41 42 40 40 51 47 41 40 40 34 37 34 41 46 47 45 44 38 34 43 52 53 40 23 47 12 356 11 12 21 44 63 61 24 298 325 328 358 53 360 350 13 354 352 345 341 337 343 348 5 1 7 23
125 128 132 133 109 102 101 105 112 121 130 118 114 116 121 123 118 115 109 105 106 108 106 104 101 100 98 89 82 69 54 40 37 41 43 40 45 52 46 43 39 36 37 31 33 48 53 52 41 34 34 39 45 49 49 29 33 22 358 360 357 17 30 55 36 32 18 339 323 344 338 354 34 8 355 352 339 336 344 340 356 359 356 351 19
132 127 117 112 112 118 120 118 115 121 122 114 122 130 125 117 114 115 114 115 116 112 110 105 99 95 88 81 79 76 64 49 35 39 44 43 44 48 51 46 40 37 38 32 36 44 44 46 41 38 36 45 41 42 41 25 26 11 22 359 24 12 29 25 16 10 22 33 349 341 346 343 343 353 357 350 340 339 341 344 358 358 354 5 7
130 127 122 124 132 130 128 111 104 95 92 92 93 96 101 105 110 112 115 119 119 115 111 106 101 93 93 90 88 90 81 67 53 41 44 41 44 46 49 46 44 41 38 36 40 48 44 40 33 33 35 37 35 39 29 26 22 20 18 27 40 43 38 30 17 17 18 10 352 349 339 348 332 332 352 350 340 349 335 356 355 354 353 2 2